sat.trackr.live / text

‹ back to catalog

STARLINK-38049

NORAD 69751 · 2026-150N

PAYLOAD ACTIVE UNKNOWN

§ Identity

Operator
Country
US
Launch date
2026-07-02
Launch site
AFWTR
Launch vehicle
Mass (kg)
RCS (m²)

Purposes: comms

External: N2YO · Heavens-Above · Gunter

§ Orbital elements

Epoch: 2026-09-18T19:07:39.777024Z

Period
93.91 min
Inclination
97.2867°
Eccentricity
0.0002355
Mean motion
15.33448556 rev/d
Perigee alt
463.9 km
Apogee alt
467.1 km
Semi-major
6,843.7 km
B*
3.7727e-4
RAAN
100.7309°
Arg perigee
93.0706°
Mean anomaly
267.0806°
Rev number
1,347

§ Raw data

STARLINK-380491 69751U 26150N   26261.79698816  .00012126  00000+0  37727-3 0  99932 69751  97.2867 100.7309 0002355  93.0706 267.0806 15.33448556 13477

JSON: /api/v1/satellites/69751 · /tle

For live sub-satellite position, see the globe view (requires WebGL).

§ Visibility from observer

Set your observer location to see the next 7 days of passes ≥ 10°. The values pass through the URL so the page stays shareable.

No JS? Fill the form by hand. The geolocation button needs JavaScript.